カタログに戻る

STARLINK-36142

運用中通信VLEO
NORAD 66981·PAYLOAD·🇺🇸 United States

打ち上げ Dec 8, 2025 から Cape Canaveral Space Force Station

Loading…

次のパス (今後24時間)

TLE

最新Source: CelesTrak SupGP

元期: Sep 15, 2026, 04:01 UTC

1 66981C 25288Y   26258.16784722  .00009164  00000+0  33180-3 0  2580
2 66981  43.0042  33.5073 0001760 268.3926 109.8293 15.27584127    11

AllMySatでSTARLINK-36142をリアルタイム追跡

Download on the App Store